FW5619 Weather Reports


Display with metric or nautical units.
time (UTC)temp
F
wind
direction
speed
MPH
gust
MPH
rain 1hr
in
rain 24hr
in
rain mn
in
humidity
%
barometer
mb
20260831095546 71 324 2.0 9.0 0.00 0.01 0.00 86 1020.9
20260831095045 71 305 1.0 9.0 0.00 0.01 0.00 86 1020.7
20260831094545 71 305 3.0 9.0 0.00 0.01 0.00 86 1020.7
20260831094045 71 269 0.0 6.0 0.00 0.01 0.00 86 1020.6
20260831093545 71 269 3.0 7.0 0.00 0.01 0.00 87 1020.7
20260831093045 71 269 2.0 7.0 0.00 0.01 0.00 87 1020.7
20260831092544 71 269 0.0 4.0 0.00 0.01 0.00 87 1020.7
20260831092044 71 269 0.0 4.0 0.00 0.01 0.00 87 1020.6
20260831091549 71 269 1.0 4.0 0.00 0.01 0.00 87 1020.6
20260831091044 71 269 1.0 4.0 0.00 0.01 0.00 87 1020.5
20260831090543 71 269 0.0 4.0 0.00 0.01 0.00 87 1020.5
20260831090043 71 269 1.0 4.0 0.00 0.01 0.00 87 1020.6
20260831085543 71 269 0.0 3.0 0.00 0.01 0.00 86 1020.4
20260831085047 71 269 0.0 3.0 0.00 0.01 0.00 86 1020.4
20260831084542 71 269 0.0 3.0 0.00 0.01 0.00 86 1020.4
20260831084042 71 269 1.0 4.0 0.00 0.01 0.00 86 1020.6
20260831083542 71 269 2.0 6.0 0.00 0.01 0.00 86 1020.5
20260831083043 71 269 0.0 6.0 0.00 0.01 0.00 86 1020.5
20260831082544 71 269 0.0 3.0 0.00 0.01 0.00 85 1020.5
20260831082041 72 269 0.0 6.0 0.00 0.01 0.00 85 1020.5
20260831081542 72 269 1.0 7.0 0.00 0.01 0.00 85 1020.5
20260831081041 72 269 3.0 7.0 0.00 0.01 0.00 85 1020.5
20260831080542 72 269 1.0 4.0 0.00 0.01 0.00 85 1020.5
20260831080040 72 269 0.0 4.0 0.00 0.01 0.00 85 1020.5
20260831075539 72 269 1.0 6.0 0.00 0.01 0.00 85 1020.5
20260831075040 72 269 2.0 6.0 0.00 0.01 0.00 85 1020.4
20260831074540 72 269 2.0 6.0 0.00 0.01 0.00 85 1020.4
20260831074041 72 269 1.0 4.0 0.00 0.01 0.00 86 1020.4
20260831073540 72 269 1.0 4.0 0.00 0.01 0.00 86 1020.5
20260831073039 72 269 1.0 4.0 0.00 0.01 0.00 87 1020.6
20260831072540 72 269 1.0 4.0 0.00 0.01 0.00 87 1020.6
20260831072038 72 269 1.0 4.0 0.00 0.01 0.00 87 1020.6
20260831071537 72 269 0.0 3.0 0.00 0.01 0.00 88 1020.6
20260831071039 72 269 0.0 3.0 0.00 0.01 0.00 88 1020.6
20260831070537 72 269 1.0 3.0 0.00 0.01 0.00 88 1020.6
20260831070037 72 269 1.0 3.0 0.00 0.01 0.00 87 1020.5
20260831065536 72 269 0.0 3.0 0.00 0.01 0.00 87 1020.5
20260831065036 72 269 0.0 3.0 0.00 0.01 0.00 87 1020.6
20260831064537 72 269 1.0 3.0 0.00 0.01 0.00 87 1020.5
20260831064035 72 269 0.0 2.0 0.00 0.01 0.00 87 1020.5
20260831063535 72 269 0.0 1.0 0.00 0.01 0.00 87 1020.6
20260831063035 72 269 0.0 3.0 0.00 0.01 0.00 87 1020.6
20260831062534 72 269 0.0 6.0 0.00 0.01 0.00 87 1020.5
20260831062034 73 269 2.0 6.0 0.00 0.01 0.00 87 1020.5
20260831061534 73 269 1.0 6.0 0.00 0.01 0.00 87 1020.7
20260831061034 73 269 1.0 4.0 0.00 0.01 0.00 87 1020.6
20260831060534 73 269 1.0 4.0 0.00 0.01 0.00 88 1020.5
20260831060033 73 269 0.0 6.0 0.00 0.01 0.00 88 1020.6
20260831055532 73 269 0.0 3.0 0.00 0.01 0.00 88 1020.6
20260831055032 73 269 0.0 3.0 0.00 0.01 0.00 87 1020.5
20260831054536 73 269 0.0 2.0 0.00 0.01 0.00 87 1020.5
20260831054033 73 269 0.0 3.0 0.00 0.01 0.00 86 1020.5
20260831053530 73 269 0.0 4.0 0.00 0.01 0.00 86 1020.4
20260831053034 74 269 0.0 4.0 0.00 0.01 0.00 87 1020.5
20260831052528 74 269 1.0 4.0 0.00 0.01 0.00 88 1020.6
20260831052029 74 269 0.0 4.0 0.00 0.01 0.00 88 1020.7
20260831051529 74 269 0.0 3.0 0.00 0.01 0.00 88 1020.8
20260831051027 74 269 0.0 3.0 0.00 0.01 0.00 88 1020.7
20260831050526 74 269 0.0 3.0 0.00 0.01 0.00 88 1020.7
20260831050026 74 269 0.0 3.0 0.00 0.01 0.00 88 1020.7
20260831045526 74 269 0.0 2.0 0.00 0.01 0.00 88 1020.6
20260831045025 74 269 0.0 1.0 0.00 0.01 0.00 88 1020.6
20260831044527 74 269 0.0 4.0 0.00 0.01 0.00 88 1020.5
20260831044024 74 269 1.0 4.0 0.00 0.01 0.00 88 1020.5
20260831043527 74 269 0.0 6.0 0.00 0.01 0.00 88 1020.4
20260831043024 74 269 1.0 7.0 0.00 0.01 0.00 88 1020.5
20260831042524 74 269 3.0 7.0 0.00 0.01 0.00 89 1020.5
20260831042023 74 269 0.0 3.0 0.00 0.01 0.00 89 1020.6
20260831041554 74 269 0.0 4.0 0.00 0.01 0.00 89 1020.4
20260831041024 74 269 0.0 4.0 0.00 0.01 0.00 88 1020.4
20260831040522 74 269 1.0 3.0 0.00 0.01 0.00 89 1020.4
20260831040023 74 269 1.0 3.0 0.00 0.01 0.00 89 1020.4
20260831035520 74 269 1.0 4.0 0.00 0.01 0.01 89 1020.3
20260831035019 74 269 2.0 4.0 0.00 0.01 0.01 90 1020.3
20260831034519 74 269 0.0 1.0 0.00 0.01 0.01 89 1020.2
20260831034019 74 269 0.0 2.0 0.00 0.01 0.01 89 1020.2
20260831033519 74 269 1.0 4.0 0.00 0.01 0.01 89 1020.1
20260831033023 74 269 2.0 4.0 0.00 0.01 0.01 89 1020.2
20260831032519 74 269 0.0 2.0 0.00 0.01 0.01 89 1020.2
20260831032021 74 269 0.0 2.0 0.00 0.01 0.01 89 1020.0
20260831031518 74 269 0.0 3.0 0.01 0.01 0.01 89 1020.1
20260831031017 74 269 0.0 4.0 0.01 0.01 0.01 90 1020.1
20260831030518 74 269 2.0 6.0 0.01 0.01 0.01 90 1020.2
20260831030018 74 269 3.0 6.0 0.01 0.01 0.01 91 1020.4
20260831025517 74 269 0.0 3.0 0.01 0.01 0.01 92 1020.6
20260831025017 74 269 0.0 3.0 0.01 0.01 0.01 92 1020.7
20260831024518 74 269 0.0 6.0 0.01 0.01 0.01 92 1020.7
20260831024017 74 269 0.0 8.0 0.01 0.01 0.01 92 1020.8
20260831023519 74 232 0.0 2.0 0.01 0.01 0.01 93 1020.8
20260831023018 75 232 0.0 3.0 0.01 0.01 0.01 93 1020.9
20260831022516 75 232 1.0 4.0 0.01 0.01 0.01 92 1020.8
20260831022017 75 232 2.0 4.0 0.00 0.00 0.00 92 1020.7
20260831021528 75 232 0.0 2.0 0.00 0.00 0.00 92 1020.7
20260831021017 75 232 0.0 2.0 0.00 0.00 0.00 93 1020.7
20260831020518 75 232 0.0 3.0 0.00 0.00 0.00 93 1020.7
20260831020015 75 232 1.0 5.0 0.00 0.00 0.00 93 1020.7
20260831015514 75 232 1.0 6.0 0.00 0.00 0.00 93 1020.7
20260831015014 75 232 3.0 6.0 0.00 0.00 0.00 93 1020.7
20260831014520 75 232 4.0 6.0 0.00 0.00 0.00 93 1020.7
20260831014014 75 232 3.0 6.0 0.00 0.00 0.00 93 1020.6
20260831013514 75 231 2.0 6.0 0.00 0.00 0.00 93 1020.5
20260831013014 75 231 3.0 8.0 0.00 0.00 0.00 93 1020.6
20260831012514 75 231 4.0 8.0 0.00 0.00 0.00 93 1020.6
20260831012013 75 231 3.0 8.0 0.00 0.00 0.00 93 1020.6
20260831011526 75 232 4.0 7.0 0.00 0.00 0.00 93 1020.7
20260831011012 75 232 4.0 7.0 0.00 0.00 0.00 93 1020.6
20260831010512 75 231 2.0 7.0 0.00 0.00 0.00 93 1020.5
20260831010012 75 232 3.0 8.0 0.00 0.00 0.00 93 1020.4
20260831005512 75 232 4.0 8.0 0.00 0.00 0.00 93 1020.5
20260831005013 75 226 4.0 7.0 0.00 0.00 0.00 93 1020.5
20260831004512 75 222 3.0 7.0 0.00 0.00 0.00 92 1020.4
20260831004013 75 222 3.0 7.0 0.00 0.00 0.00 92 1020.3
20260831003513 75 223 3.0 7.0 0.00 0.00 0.00 92 1020.3
20260831003011 75 224 3.0 9.0 0.00 0.00 0.00 92 1020.1
20260831002510 75 238 4.0 9.0 0.00 0.00 0.00 92 1020.2
20260831002010 75 209 2.0 8.0 0.00 0.00 0.00 91 1020.1
20260831001512 75 218 4.0 10.0 0.00 0.00 0.00 91 1020.1
20260831001013 75 204 4.0 10.0 0.00 0.00 0.00 91 1020.1
20260831000509 75 207 3.0 10.0 0.00 0.00 0.00 91 1019.9
20260831000010 75 196 6.0 11.0 0.00 0.00 0.00 91 1019.9
20260830235510 75 187 6.0 11.0 0.00 0.00 0.00 91 1019.9
20260830235010 75 202 3.0 10.0 0.00 0.00 0.00 91 1019.9
20260830234511 75 203 5.0 11.0 0.00 0.00 0.00 91 1019.8
20260830234008 75 196 6.0 11.0 0.00 0.00 0.00 91 1019.7
20260830233508 75 214 6.0 11.0 0.00 0.00 0.00 91 1019.8
20260830233019 75 232 5.0 12.0 0.00 0.00 0.00 91 1019.9
20260830232508 75 259 5.0 12.0 0.00 0.00 0.00 90 1019.9
20260830232008 75 207 5.0 9.0 0.00 0.00 0.00 90 1019.8
20260830231508 75 209 5.0 9.0 0.00 0.00 0.00 90 1019.7
20260830231008 75 227 5.0 11.0 0.00 0.00 0.00 90 1019.8
20260830230507 75 233 4.0 13.0 0.00 0.00 0.00 90 1019.7
20260830230008 75 223 6.0 14.0 0.00 0.00 0.00 90 1019.7
20260830225507 75 182 7.0 15.0 0.00 0.00 0.00 90 1019.7
20260830225008 75 212 9.0 17.0 0.00 0.00 0.00 89 1019.7
20260830224507 75 188 10.0 16.0 0.00 0.00 0.00 89 1019.7
20260830224006 75 172 7.0 15.0 0.00 0.00 0.00 89 1019.7
20260830223505 75 186 6.0 11.0 0.00 0.00 0.00 89 1020.0
20260830223004 75 202 6.0 14.0 0.00 0.00 0.00 89 1020.0
20260830222504 75 190 9.0 14.0 0.00 0.00 0.00 89 1020.0
20260830222005 75 228 5.0 12.0 0.00 0.00 0.00 89 1020.2
20260830221506 75 218 4.0 10.0 0.00 0.00 0.00 89 1020.4
20260830221004 75 210 5.0 12.0 0.00 0.00 0.00 89 1020.3
20260830220503 75 211 4.0 11.0 0.00 0.00 0.00 89 1020.3
20260830220003 75 186 5.0 10.0 0.00 0.00 0.00 89 1020.2
20260830215504 75 202 4.0 14.0 0.00 0.00 0.00 89 1020.2
20260830215004 75 229 8.0 16.0 0.00 0.00 0.00 88 1020.1
20260830214503 75 186 10.0 16.0 0.00 0.00 0.00 88 1020.1
20260830214001 75 188 10.0 17.0 0.00 0.00 0.00 88 1020.0
20260830213502 75 188 6.0 15.0 0.00 0.00 0.00 88 1020.2
20260830213003 75 219 7.0 18.0 0.00 0.00 0.00 88 1020.1
20260830212501 75 183 9.0 18.0 0.00 0.00 0.00 87 1020.2
20260830212101 75 227 8.0 18.0 0.00 0.00 0.00 87 1020.2
20260830211606 75 183 11.0 18.0 0.00 0.00 0.00 87 1020.3
20260830211100 75 205 6.0 16.0 0.00 0.00 0.00 87 1020.4
20260830210559 75 192 6.0 16.0 0.00 0.00 0.00 87 1020.3
20260830210059 75 234 5.0 14.0 0.00 0.00 0.00 87 1020.3
20260830205559 75 225 6.0 18.0 0.00 0.00 0.00 87 1020.4
20260830205059 75 174 7.0 15.0 0.00 0.00 0.00 87 1020.4
20260830204559 75 200 9.0 16.0 0.00 0.00 0.00 87 1020.3
20260830204058 75 194 9.0 17.0 0.00 0.00 0.00 86 1020.3
20260830203558 75 242 8.0 14.0 0.00 0.00 0.00 86 1020.3
20260830203058 75 190 8.0 17.0 0.00 0.00 0.00 86 1020.4
20260830202600 75 185 9.0 17.0 0.00 0.00 0.00 86 1020.5
20260830202055 75 190 9.0 19.0 0.00 0.00 0.00 87 1020.6
20260830201556 75 193 11.0 20.0 0.00 0.00 0.00 86 1020.6
20260830201054 75 194 11.0 20.0 0.00 0.00 0.00 86 1020.7
20260830200556 75 183 12.0 19.0 0.00 0.00 0.00 86 1020.6
20260830200054 75 232 12.0 18.0 0.00 0.00 0.00 85 1020.6
20260830195557 75 155 9.0 15.0 0.00 0.00 0.00 86 1020.8
20260830195053 75 179 8.0 14.0 0.00 0.00 0.00 85 1020.8
20260830194604 75 175 8.0 14.0 0.00 0.00 0.00 85 1020.9
20260830194053 75 197 9.0 14.0 0.00 0.00 0.00 86 1020.9
20260830193552 75 187 8.0 14.0 0.00 0.00 0.00 85 1020.9
20260830193102 75 186 9.0 14.0 0.00 0.00 0.00 84 1021.0
20260830192551 75 188 6.0 14.0 0.00 0.00 0.00 85 1021.0
20260830192050 75 238 8.0 14.0 0.00 0.00 0.00 84 1021.1
20260830191550 75 192 5.0 14.0 0.00 0.00 0.00 84 1021.2
20260830191049 75 191 4.0 14.0 0.00 0.00 0.00 84 1021.3
20260830190549 75 244 4.0 10.0 0.00 0.00 0.00 84 1021.4
20260830190048 75 193 4.0 10.0 0.00 0.00 0.00 84 1021.5
20260830185548 75 214 3.0 11.0 0.00 0.00 0.00 84 1021.5
20260830185047 75 192 6.0 15.0 0.00 0.00 0.00 84 1021.7
20260830184555 75 177 8.0 15.0 0.00 0.00 0.00 83 1021.8
20260830184045 75 225 9.0 18.0 0.00 0.00 0.00 83 1021.7
20260830183546 75 233 9.0 15.0 0.00 0.00 0.00 83 1021.9
20260830183046 75 178 6.0 15.0 0.00 0.00 0.00 83 1021.9
20260830182544 75 193 9.0 14.0 0.00 0.00 0.00 83 1022.0
20260830182042 76 184 8.0 14.0 0.00 0.00 0.00 82 1022.0
20260830181542 76 192 8.0 14.0 0.00 0.00 0.00 81 1022.0
20260830181045 76 186 7.0 13.0 0.00 0.00 0.00 81 1022.1
20260830180541 77 204 5.0 13.0 0.00 0.00 0.00 79 1022.1
20260830180039 76 195 8.0 13.0 0.00 0.00 0.00 80 1022.1
20260830175538 76 153 6.0 12.0 0.00 0.00 0.00 81 1022.2
20260830175040 75 190 6.0 11.0 0.00 0.00 0.00 80 1022.2
20260830174539 75 194 5.0 11.0 0.00 0.00 0.00 79 1022.4
20260830174038 74 196 5.0 14.0 0.00 0.00 0.00 80 1022.4
20260830173537 74 190 9.0 14.0 0.00 0.00 0.00 81 1022.4
20260830173036 75 200 3.0 11.0 0.00 0.00 0.00 81 1022.4
20260830172537 75 194 7.0 13.0 0.00 0.00 0.00 79 1022.4
20260830172038 75 188 8.0 12.0 0.00 0.00 0.00 78 1022.3
20260830171537 75 227 7.0 11.0 0.00 0.00 0.00 77 1022.4
20260830171036 75 209 6.0 11.0 0.00 0.00 0.00 77 1022.5
20260830170533 75 236 6.0 12.0 0.00 0.00 0.00 77 1022.6
20260830170035 75 198 8.0 13.0 0.00 0.00 0.00 78 1022.6
20260830165531 74 220 8.0 13.0 0.00 0.00 0.00 80 1022.6
20260830165034 75 223 6.0 14.0 0.00 0.00 0.00 80 1022.7
20260830164531 75 179 4.0 14.0 0.00 0.00 0.00 80 1022.9
20260830164033 75 203 7.0 16.0 0.00 0.00 0.00 79 1022.9
20260830163530 75 175 8.0 16.0 0.00 0.00 0.00 78 1022.9
20260830163032 76 222 6.0 12.0 0.00 0.00 0.00 78 1022.9
20260830162527 76 204 6.0 12.0 0.00 0.00 0.00 78 1022.9
20260830162029 76 221 8.0 12.0 0.00 0.00 0.00 79 1023.0
20260830161527 76 226 8.0 12.0 0.00 0.00 0.00 77 1022.9
20260830161024 75 242 5.0 14.0 0.00 0.00 0.00 78 1022.8
20260830160521 75 225 9.0 15.0 0.00 0.00 0.00 77 1022.8
20260830160021 75 227 7.0 15.0 0.00 0.00 0.00 78 1022.9
20260830155520 75 221 8.0 13.0 0.00 0.00 0.00 77 1023.1
20260830155020 76 227 7.0 12.0 0.00 0.00 0.00 77 1023.2
20260830154517 75 221 7.0 12.0 0.00 0.00 0.00 77 1023.3
20260830154017 75 221 6.0 17.0 0.00 0.00 0.00 76 1023.3
20260830153513 75 221 10.0 17.0 0.00 0.00 0.00 75 1023.4
20260830153012 75 225 7.0 12.0 0.00 0.00 0.00 75 1023.4
20260830152515 75 228 7.0 15.0 0.00 0.00 0.00 75 1023.4
20260830152012 75 229 7.0 15.0 0.00 0.00 0.00 75 1023.6
20260830151507 75 229 6.0 14.0 0.00 0.00 0.00 75 1023.6
20260830151007 75 225 7.0 14.0 0.00 0.00 0.00 75 1023.6
20260830150506 75 221 9.0 14.0 0.00 0.00 0.00 74 1023.6
20260830150006 75 222 7.0 16.0 0.00 0.00 0.00 74 1023.6
20260830145505 74 220 8.0 16.0 0.00 0.00 0.00 73 1023.7
20260830145004 75 215 5.0 9.0 0.00 0.00 0.00 73 1023.6
20260830144504 75 214 5.0 9.0 0.00 0.00 0.00 72 1023.6
20260830144003 75 214 4.0 9.0 0.00 0.00 0.00 72 1023.7
20260830143501 74 219 5.0 11.0 0.00 0.00 0.00 71 1023.7
20260830143101 74 218 7.0 12.0 0.00 0.00 0.00 70 1023.8
20260830142600 75 215 5.0 11.0 0.00 0.00 0.00 70 1023.8
20260830142101 74 213 4.0 9.0 0.00 0.00 0.00 70 1023.8
20260830141558 75 213 5.0 10.0 0.00 0.00 0.00 69 1023.9
20260830141055 74 215 7.0 14.0 0.00 0.00 0.00 68 1023.9
20260830140554 74 214 6.0 14.0 0.00 0.00 0.00 69 1024.1
20260830140053 74 213 7.0 12.0 0.00 0.00 0.00 68 1024.1
20260830135554 74 210 7.0 10.0 0.00 0.00 0.00 71 1024.1
20260830135051 73 210 5.0 10.0 0.00 0.00 0.00 74 1024.2
20260830134551 73 207 6.0 10.0 0.00 0.00 0.00 73 1024.3
20260830134053 73 206 5.0 10.0 0.00 0.00 0.00 75 1024.2
20260830133550 73 205 6.0 10.0 0.00 0.00 0.00 77 1024.3
20260830133055 73 202 5.0 10.0 0.00 0.00 0.00 78 1024.3
20260830132550 73 200 5.0 11.0 0.00 0.00 0.00 77 1024.3
20260830132049 73 199 5.0 11.0 0.00 0.00 0.00 76 1024.2
20260830131552 73 202 4.0 9.0 0.00 0.00 0.00 75 1024.3
20260830131050 73 202 6.0 9.0 0.00 0.00 0.00 74 1024.3
20260830130547 73 201 6.0 9.0 0.00 0.00 0.00 75 1024.4
20260830130055 72 201 4.0 9.0 0.00 0.00 0.00 79 1024.4
20260830125547 72 201 5.0 9.0 0.00 0.00 0.00 78 1024.5
20260830125048 72 200 6.0 10.0 0.00 0.00 0.00 77 1024.4
20260830124545 72 200 6.0 10.0 0.00 0.00 0.00 76 1024.6
20260830124046 72 200 5.0 9.0 0.00 0.00 0.00 78 1024.5
20260830123543 72 200 6.0 10.0 0.00 0.00 0.00 78 1024.6
20260830123043 72 200 5.0 10.0 0.00 0.00 0.00 81 1024.5
20260830122542 71 200 5.0 9.0 0.00 0.00 0.00 83 1024.6
20260830122039 71 199 6.0 9.0 0.00 0.00 0.00 83 1024.4
20260830121540 71 196 4.0 7.0 0.00 0.00 0.00 84 1024.5
20260830121042 70 196 3.0 5.0 0.00 0.00 0.00 86 1024.4
20260830120537 70 196 3.0 5.0 0.00 0.00 0.00 88 1024.5
20260830120040 70 196 2.0 5.0 0.00 0.00 0.00 88 1024.5
20260830115536 70 196 1.0 4.0 0.00 0.00 0.00 88 1024.3
20260830115036 69 196 0.0 3.0 0.00 0.00 0.00 89 1024.3
20260830114537 69 196 1.0 3.0 0.00 0.00 0.00 88 1024.4
20260830114035 69 196 1.0 3.0 0.00 0.00 0.00 88 1024.3
20260830113535 69 196 0.0 3.0 0.00 0.00 0.00 88 1024.3
20260830113035 69 196 1.0 4.0 0.00 0.00 0.00 88 1024.4
20260830112535 68 196 2.0 4.0 0.00 0.00 0.00 88 1024.4
20260830112034 68 196 1.0 4.0 0.00 0.00 0.00 89 1024.3
20260830111536 68 196 2.0 4.0 0.00 0.00 0.00 89 1024.4
20260830111034 68 196 1.0 4.0 0.00 0.00 0.00 89 1024.3
20260830110534 68 196 2.0 4.0 0.00 0.00 0.00 89 1024.3
20260830110034 68 196 1.0 4.0 0.00 0.00 0.00 90 1024.4
20260830105533 68 196 1.0 4.0 0.00 0.00 0.00 90 1024.4
20260830105034 68 196 2.0 4.0 0.00 0.00 0.00 89 1024.3
20260830104533 68 196 2.0 4.0 0.00 0.00 0.00 89 1024.3
20260830104033 67 196 2.0 4.0 0.00 0.00 0.00 90 1024.3
20260830103539 67 196 1.0 3.0 0.00 0.00 0.00 90 1024.2
20260830103033 67 196 1.0 4.0 0.00 0.00 0.00 90 1024.2
20260830102534 67 196 1.0 4.0 0.00 0.00 0.00 89 1024.2
20260830102031 67 196 2.0 4.0 0.00 0.00 0.00 89 1024.1
20260830101531 67 196 2.0 5.0 0.00 0.00 0.00 89 1024.2
20260830101031 67 196 2.0 6.0 0.00 0.00 0.00 89 1024.0
20260830100531 67 196 4.0 6.0 0.00 0.00 0.00 90 1024.2
20260830100042 67 196 2.0 5.0 0.00 0.00 0.00 90 1024.2